Regional Weather Roundup
Issued by NWS Boston, MA

Home | Current Version | Previous Version | Text Only | Print | Product List | Glossary On
Versions: 1 2 3 4 5 6 7 8 9 10 11 12 13 14 15 16 17 18 19 20 21 22 23 24 25 26 27 28 29 30 31 32 33 34 35 36 37 38 39 40 41 42 43 44 45 46 47 48 49 50
000
ASUS41 KBOX 280410
RWRBOX

REGIONAL WEATHER ROUNDUP
NATIONAL WEATHER SERVICE TAUNTON MA
1200 AM EDT TUE JUL 28 2015

NOTE:  "FAIR" INDICATES FEW OR NO CLOUDS BELOW 12,000 FEET WITH NO
SIGNIFICANT WEATHER AND/OR OBSTRUCTIONS TO VISIBILITY.  THE FOLLOWING
OBSERVATION LOCATIONS DO NOT REPORT PRESENT WEATHER...PROVINCETOWN...
SMITHFIELD...BLOCK ISLAND...KEENE...AND OXFORD.

MAZALL-280500-
EASTERN MASSACHUSETTS

CITY           SKY/WX    TMP DP  RH WIND       PRES   REMARKS
BOSTON         PTCLDY    72  68  87 S7        30.00F
BEVERLY        PTCLDY    71  65  81 S5        29.99F
LAWRENCE       CLEAR     69  66  90 SW5       30.02S
BEDFORD        CLEAR     70  66  87 SW3       29.99F
BLUE HILL        N/A     69  67  93 S13       30.02F
NORWOOD        CLEAR     70  67  90 S5        30.01S
MARSHFIELD     CLEAR     72  70  94 S3        30.03F
PLYMOUTH       CLEAR     70  69  97 SW8       30.03S
TAUNTON        CLEAR     69  66  90 S3        30.02S
NEW BEDFORD    CLEAR     68  67  96 SW6       30.02F
$$

MAZALL-280500-
CAPE COD AND THE ISLANDS

CITY           SKY/WX    TMP DP  RH WIND       PRES   REMARKS
FALMOUTH       CLEAR     70  68  94 SW7       30.04S
HYANNIS        CLEAR     73  70  90 SW8       30.03S
CHATHAM        CLEAR     69  68  96 SW7       30.05S
PROVINCETOWN   PTCLDY    70  63  78 S8        30.03F
NANTUCKET      CLEAR     69  66  90 S8        30.05S
MARTHAS VNYRD  CLEAR     70  68  93 SW5       30.04S
$$

MAZALL-280500-
CENTRAL AND WESTERN MASSACHUSETTS

CITY           SKY/WX    TMP DP  RH WIND       PRES   REMARKS
WORCESTER      CLEAR     69  66  90 SW10      30.04F
FITCHBURG      CLEAR     70  66  87 CALM      30.01F
ORANGE         FOG       66  66 100 CALM      30.02F VSB 1/2
SPRINGFIELD    CLEAR     66  64  94 N5        30.00F FOG
WESTFIELD      CLEAR     67  66  97 CALM      30.01S FOG
NORTH ADAMS    MOCLDY    69  67  93 CALM      30.01S
PITTSFIELD     PTCLDY    71  67  87 CALM      30.04R
$$

RIZALL-280500-
RHODE ISLAND

CITY           SKY/WX    TMP DP  RH WIND       PRES   REMARKS
PROVIDENCE     CLEAR     69  67  93 S5        30.03F
NEWPORT        PTCLDY    70  69  97 S5        30.03S
BLOCK ISLAND   PTCLDY    72  72 100 SW8       30.04S
SMITHFIELD     CLEAR     68  68 100 CALM      30.02F
WESTERLY       CLEAR     73  71  93 CALM      30.03F
$$

CTZALL-280500-
CONNECTICUT

CITY           SKY/WX    TMP DP  RH WIND       PRES   REMARKS
BRADLEY INTL   PTCLDY    74  67  78 S6        30.00F
HARTFORD       CLEAR     74  69  85 S5        30.00F
BRIDGEPORT     PTCLDY    75  70  84 S7        30.01S
DANBURY        CLEAR     71  65  81 CALM      30.04S
GROTON         CLEAR     71  70  96 SW5       30.02S
NEW HAVEN      CLEAR     74  69  85 S6        30.02S
CHESTER        NOT AVBL
MERIDEN        CLEAR     70  67  90 CALM      30.01S
WILLIMANTIC    CLEAR     71  67  87 CALM      30.02F
OXFORD         CLEAR     72  63  73 CALM      30.05S
$$

MEZ002-015-021-024-NHZ003-005-008-011-012-014-VTZ005-008-280500-
NORTHERN NEW ENGLAND

CITY           SKY/WX    TMP DP  RH WIND       PRES   REMARKS
PORTLAND ME    MOCLDY    65  64  97 CALM      29.99F FOG
BANGOR ME      CLOUDY    64  63  96 S10       29.97F
CONCORD NH     PTCLDY    70  67  90 SE3       29.99F
MANCHESTER NH  FAIR      71  68  90 CALM      29.98F
NASHUA NH      NOT AVBL
PORTSMOUTH NH  MOCLDY    67  65  91 SE3       29.98S
JAFFREY NH     PTCLDY    66  65  96 CALM      30.03F FOG
KEENE NH       PTCLDY    66  63  88 CALM      30.01F
BURLINGTON VT  MOCLDY    72  66  81 CALM      29.96F
MT. WASHINGTON FOG       54  54 100 W26         N/A  VSB 0
$$

NYZ052-076-280500-
EASTERN NEW YORK

CITY           SKY/WX    TMP DP  RH WIND       PRES   REMARKS
ALBANY         PTCLDY    76  68  76 S7        29.99R
NEW YORK CITY  MOCLDY    78  67  68 SW6       30.01S
$$

ANZALL-280500-
MARINE OBSERVATIONS

STATION/POSITION TIME  TEMP    WIND        PRES    VSBY  WAVE
                       AIR SEA DIR/SP/G                  HT/PER
                 (UTC) (F)     (DEG/KT/KT) (MB)    (MI)  (FT/S)
BOSTON BUOY      0350   70 68  190/  6/  8 1016.4R         2/ 9
BUZZARDS BAY     0300          190/ 12/ 13 1017.7S
NANTUCKET SOUND  0350   73 72  200/ 12/ 14 1016.8S         1/ 3
MASS BAY-STELLWA 0304   69 66  200/  6/  8   N/A    1 7/8  2/ 8
ISLE OF SHOALS   0300   69     200/  5/  6 1015.4S
S OF BLOCK IS    0308      70                N/A           2/11
$$

......................KEY.........................
  SKY/WX - SKY CONDITION/PRESENT WEATHER
  TMP    - TEMPERATURE IN FAHRENHEIT
  DWPT   - DEWPOINT IN FAHRENHEIT
  RH     - RELATIVE HUMIDITY IN PERCENT
  WIND   - DIRECTION AND SPEED IN MPH
  PRES   - MEAN SEA LEVEL PRESSURE IN INCHES OF HG
  WCI    - WIND CHILL INDEX
  VSB    - VISIBILITY IN MILES
  HX     - HEAT INDEX
  TC     - TEMPERATURE IN CELSIUS
  VRB    - VARIABLE WIND DIRECTION
  N/A    - NOT AVAILABLE


USA.gov is the U.S. government's official web portal to all federal, state and local government web resources and services.